Weather History for La Grange, GA

Change the Weather History Date:

Sunday, February 5, 2012

  Actual Average Record
Temperature  
Mean Temperature 61 °F -  
Max Temperature 69 °F 56 °F 81 °F (1957)
Min Temperature 53 °F 31 °F 13 °F (1966)
Degree Days  
Heating Degree Days 4    
Growing Degree Days 11 (Base 50)    
Moisture  
Dew Point 54 °F    
Average Humidity 69    
Maximum Humidity 100    
Minimum Humidity 43    
Precipitation  
Precipitation 0.00 in - - ()
Sea Level Pressure  
Sea Level Pressure 30.07 in    
Wind  
Wind Speed 4 mph (WNW)    
Max Wind Speed 12 mph    
Max Gust Speed 16 mph    
Visibility 9 miles    
Events      
Averages and records for this station are not official NWS values.
T = Trace of Precipitation, MM = Missing Value Source: NWS Daily Summary

Daily Weather History Graph

Daily Weather History Graph

Search for Another Location

Airport:

Trip Planner

Search our weather history database for the weather conditions in past years. The results will help you decide how hot, cold, wet, or windy it might be!

Date:

Astronomy

Feb. 05, 2012 Rise Set
Actual Time 7:33 AM EST 6:15 PM EST
Civil Twilight 7:07 AM EST 6:41 PM EST
Nautical Twilight 6:37 AM EST 7:11 PM EST
Astronomical Twilight 6:08 AM EST 7:40 PM EST
Moon 4:17 PM EST (2/5) 5:38 AM EST (2/5)
Length of Visible Light 11h 34m
Length of Day
10h 42m
Waxing Gibbous, 94% of the Moon is Illuminated
Feb 5
Waxing Gibbous
Feb 7
Full
Feb 14
Last Quarter
Feb 21
New
Feb 29
First Quarter

Hourly Weather History & Observations

Time (EST) Temp. Dew Point Humidity Pressure Visibility Wind Dir Wind Speed Gust Speed Precip Events Conditions
12:15 AM 57.2 °F - N/A% 30.06 in 10.0 mi Calm Calm - N/A   Partly Cloudy
12:35 AM 57.2 °F - N/A% 30.05 in 10.0 mi North - - N/A   Partly Cloudy
12:55 AM 57.2 °F - N/A% 30.05 in 10.0 mi North - - N/A   Clear
1:15 AM 57.2 °F - N/A% 30.05 in 10.0 mi Calm Calm - N/A   Clear
1:35 AM 57.2 °F - N/A% 30.05 in 10.0 mi West 3.5 mph - N/A   Clear
1:55 AM 57.2 °F - N/A% 30.05 in 10.0 mi WNW 3.5 mph - N/A   Clear
2:15 AM 57.2 °F - N/A% 30.05 in 10.0 mi Calm Calm - N/A   Mostly Cloudy
2:35 AM 57.2 °F - N/A% 30.05 in 10.0 mi Calm Calm - N/A   Overcast
2:55 AM 57.2 °F - N/A% 30.05 in 10.0 mi WNW 3.5 mph - N/A   Overcast
3:15 AM 57.2 °F - N/A% 30.05 in 10.0 mi WNW 6.9 mph - N/A   Overcast
3:35 AM 57.2 °F - N/A% 30.04 in 10.0 mi WNW 6.9 mph - N/A   Overcast
3:55 AM 57.2 °F - N/A% 30.05 in 10.0 mi West 4.6 mph - N/A   Overcast
4:15 AM 57.2 °F - N/A% 30.06 in 10.0 mi WNW 6.9 mph - N/A   Overcast
4:35 AM 57.2 °F - N/A% 30.05 in 10.0 mi West 4.6 mph - N/A   Overcast
4:55 AM 57.2 °F - N/A% 30.05 in 10.0 mi Calm Calm - N/A   Overcast
5:15 AM 57.2 °F - N/A% 30.05 in 10.0 mi West 3.5 mph - N/A   Overcast
5:35 AM 57.2 °F - N/A% 30.05 in 10.0 mi Calm Calm - N/A   Overcast
5:55 AM 55.4 °F - N/A% 30.05 in 10.0 mi North - - N/A   Overcast
6:15 AM 57.2 °F - N/A% 30.07 in 10.0 mi North - - N/A   Overcast
6:35 AM 57.2 °F - N/A% 30.07 in 10.0 mi Calm Calm - N/A   Overcast
6:55 AM 57.2 °F - N/A% 30.06 in 10.0 mi North - - N/A   Overcast
7:15 AM 55.4 °F - N/A% 30.07 in 8.0 mi North - - N/A   Mostly Cloudy
7:35 AM 53.6 °F - N/A% 30.07 in 0.2 mi Calm Calm - N/A   Mostly Cloudy
7:55 AM 53.6 °F - N/A% 30.09 in 0.2 mi North - - N/A   Unknown
8:15 AM 53.6 °F - N/A% 30.08 in 0.2 mi Calm Calm - N/A   Unknown
8:35 AM 55.4 °F - N/A% 30.09 in 1.2 mi Calm Calm - N/A   Clear
8:55 AM 57.2 °F - N/A% 30.09 in 10.0 mi Calm Calm - N/A   Mostly Cloudy
9:15 AM 57.2 °F - N/A% 30.09 in 10.0 mi NW 4.6 mph - N/A   Overcast
9:35 AM 59.0 °F - N/A% 30.10 in 10.0 mi Calm Calm - N/A   Overcast
9:55 AM 60.8 °F - N/A% 30.11 in 10.0 mi NW 4.6 mph - N/A   Overcast
10:15 AM 60.8 °F 60.8 °F 100% 30.11 in 10.0 mi NNW 4.6 mph - N/A   Overcast
10:35 AM 60.8 °F 60.8 °F 100% 30.11 in 10.0 mi West 4.6 mph - N/A   Mostly Cloudy
10:55 AM 62.6 °F 62.6 °F 100% 30.10 in 10.0 mi Calm Calm - N/A   Scattered Clouds
11:15 AM 64.4 °F 62.6 °F 94% 30.10 in 10.0 mi WNW 4.6 mph - N/A   Scattered Clouds
11:35 AM 64.4 °F 60.8 °F 88% 30.10 in 10.0 mi NW 8.1 mph - N/A   Mostly Cloudy
11:55 AM 64.4 °F 60.8 °F 88% 30.10 in 10.0 mi NW 8.1 mph - N/A   Mostly Cloudy
12:15 PM 64.4 °F 60.8 °F 88% 30.10 in 10.0 mi NW 6.9 mph - N/A   Mostly Cloudy
12:35 PM 66.2 °F 59.0 °F 78% 30.09 in 10.0 mi WNW 11.5 mph - N/A   Mostly Cloudy
12:55 PM 66.2 °F 59.0 °F 78% 30.08 in 10.0 mi WNW 6.9 mph - N/A   Mostly Cloudy
1:15 PM 66.2 °F 57.2 °F 73% 30.07 in 10.0 mi NW 8.1 mph - N/A   Scattered Clouds
1:35 PM 66.2 °F 57.2 °F 73% 30.07 in 10.0 mi NW 9.2 mph - N/A   Scattered Clouds
1:55 PM 68.0 °F 55.4 °F 64% 30.06 in 10.0 mi NW 8.1 mph - N/A   Mostly Cloudy
2:15 PM 68.0 °F 53.6 °F 60% 30.05 in 10.0 mi West 8.1 mph - N/A   Scattered Clouds
2:35 PM 69.8 °F 53.6 °F 56% 30.04 in 10.0 mi West 8.1 mph - N/A   Partly Cloudy
2:55 PM 69.8 °F 53.6 °F 56% 30.04 in 10.0 mi NW 9.2 mph - N/A   Partly Cloudy
3:15 PM 69.8 °F 53.6 °F 56% 30.04 in 10.0 mi West 8.1 mph - N/A   Partly Cloudy
3:35 PM 69.8 °F 48.2 °F 46% 30.04 in 10.0 mi West 6.9 mph 16.1 mph N/A   Clear
3:55 PM 68.0 °F 48.2 °F 49% 30.04 in 10.0 mi WNW 10.4 mph - N/A   Clear
4:15 PM 68.0 °F 48.2 °F 49% 30.04 in 10.0 mi WNW 9.2 mph - N/A   Clear
4:35 PM 69.8 °F 46.4 °F 43% 30.05 in 10.0 mi WNW 6.9 mph - N/A   Clear
4:55 PM 68.0 °F 48.2 °F 49% 30.05 in 10.0 mi West 10.4 mph - N/A   Clear
5:15 PM 68.0 °F 48.2 °F 49% 30.05 in 10.0 mi WNW 9.2 mph - N/A   Clear
5:35 PM 66.2 °F 48.2 °F 52% 30.05 in 9.0 mi NW 6.9 mph - N/A   Clear
5:55 PM 64.4 °F 48.2 °F 56% 30.06 in 10.0 mi NW 5.8 mph - N/A   Clear
6:15 PM 62.6 °F 48.2 °F 59% 30.06 in 10.0 mi NW 3.5 mph - N/A   Clear
6:35 PM 60.8 °F 48.2 °F 63% 30.06 in 10.0 mi NW 4.6 mph - N/A   Clear
6:55 PM 60.8 °F 53.6 °F 77% 30.08 in 10.0 mi NNW 11.5 mph - N/A   Clear
7:15 PM 57.2 °F 55.4 °F 94% 30.09 in 10.0 mi NNW 10.4 mph 16.1 mph N/A   Clear
7:35 PM 57.2 °F 55.4 °F 94% 30.10 in 10.0 mi NW 6.9 mph - N/A   Clear
7:55 PM 55.4 °F 53.6 °F 94% 30.10 in 10.0 mi NW 6.9 mph - N/A   Clear
8:15 PM 55.4 °F 55.4 °F 100% 30.11 in 10.0 mi NNW 4.6 mph - N/A   Clear
8:35 PM 53.6 °F 53.6 °F 100% 30.11 in 10.0 mi NW 3.5 mph - N/A   Clear
8:55 PM 53.6 °F 53.6 °F 100% 30.11 in 10.0 mi North - - N/A   Clear
9:15 PM 51.8 °F 51.8 °F 100% 30.12 in 10.0 mi North - - N/A   Clear
9:35 PM 51.8 °F 51.8 °F 100% 30.12 in 10.0 mi Calm Calm - N/A   Clear
9:55 PM 51.8 °F 51.8 °F 100% 30.12 in 10.0 mi North - - N/A   Clear
10:15 PM 50.0 °F 50.0 °F 100% 30.12 in 10.0 mi Calm Calm - N/A   Partly Cloudy
10:35 PM 50.0 °F - N/A% 30.12 in 10.0 mi North - - N/A   Mostly Cloudy
10:55 PM 48.2 °F - N/A% 30.12 in 10.0 mi North - - N/A   Overcast
11:15 PM 48.2 °F - N/A% 30.12 in 10.0 mi Calm Calm - N/A   Mostly Cloudy
11:35 PM 48.2 °F - N/A% 30.12 in 10.0 mi Calm Calm - N/A   Mostly Cloudy
11:55 PM 48.2 °F - N/A% 30.12 in 10.0 mi North - - N/A   Mostly Cloudy